This is the latest recevied weather packets stored in our database for station/object DG1ROH. If no packets are shown the sender has not sent any weather packets the latest 10 day(s).
| Time | Temp. | Humidity | Pressure | Rain* | Wind** | Luminosity | Snow |
|---|---|---|---|---|---|---|---|
| 1777191417 | 10.56° C | 54% | 1023.6 hPa | 0 mm | - | 548 W/m² | - |
| 1777191297 | 10.56° C | 54% | 1023.6 hPa | 0 mm | - | 552 W/m² | - |
| 1777191177 | 10° C | 57% | 1023.6 hPa | 0 mm | - | 550 W/m² | - |
| 1777191059 | 9.44° C | 54% | 1023.5 hPa | 0 mm | - | 534 W/m² | - |
| 1777190937 | 10° C | 54% | 1023.5 hPa | 0 mm | - | 533 W/m² | - |
| 1777190817 | 10° C | 57% | 1023.5 hPa | 0 mm | - | 526 W/m² | - |
| 1777190696 | 10° C | 56% | 1023.6 hPa | 0 mm | - | 531 W/m² | - |
| 1777190577 | 9.44° C | 60% | 1023.4 hPa | 0 mm | - | 526 W/m² | - |
| 1777190457 | 9.44° C | 58% | 1023.5 hPa | 0 mm | - | 508 W/m² | - |
| 1777190337 | 9.44° C | 57% | 1023.5 hPa | 0 mm | - | 148 W/m² | - |
| 1777190217 | 9.44° C | 60% | 1023.5 hPa | 0 mm | - | 91 W/m² | - |
| 1777190097 | 9.44° C | 59% | 1023.4 hPa | 0 mm | - | 60 W/m² | - |
| 1777189976 | 9.44° C | 61% | 1023.5 hPa | 0 mm | - | 65 W/m² | - |
| 1777189857 | 9.44° C | 63% | 1023.4 hPa | 0 mm | - | 83 W/m² | - |
| 1777189739 | 9.44° C | 62% | 1023.5 hPa | 0 mm | - | 44 W/m² | - |
| 1777189617 | 8.89° C | 61% | 1023.4 hPa | 0 mm | - | 44 W/m² | - |
| 1777189497 | 8.89° C | 63% | 1023.4 hPa | 0 mm | - | 42 W/m² | - |
| 1777189377 | 8.89° C | 63% | 1023.4 hPa | 0 mm | - | 42 W/m² | - |
| 1777189257 | 8.89° C | 62% | 1023.4 hPa | 0 mm | - | 39 W/m² | - |
| 1777189136 | 8.89° C | 62% | 1023.4 hPa | 0 mm | - | 37 W/m² | - |
| 1777189017 | 8.89° C | 63% | 1023.5 hPa | 0 mm | - | 37 W/m² | - |
| 1777188896 | 8.89° C | 63% | 1023.4 hPa | 0 mm | - | 35 W/m² | - |
| 1777188776 | 8.89° C | 64% | 1023.2 hPa | 0 mm | - | 37 W/m² | - |
| 1777188657 | 8.89° C | 64% | 1023.2 hPa | 0 mm | - | 35 W/m² | - |
| 1777188537 | 8.33° C | 63% | 1023.2 hPa | 0 mm | - | 35 W/m² | - |
* Rain latest hour (hover to see other rain measurements)
** Current wind speed in m/s (hover to see current wind gust speed)